CEB136 RPLL-RPVE

Flight info

Callsign CEB136
Flight time 0h 35m
Altitude 25000
Route VERDE2V VERDE W24 TAPER TAPER7A
Aircraft A320/M-V/N

Departure

Time 2026-04-24 13:15
Airport Ninoy Aquino International Airport (RPLL)

Arrival

Time 2026-04-24 13:50
Airport Godofredo P. Ramos Airport (RPVE)
Time Latitude Longitude Altitude Speed Heading
2026-04-24 12:59 14.52192 121.00999 82 ft 0 kts 46°
2026-04-24 13:06 14.52183 121.00990 82 ft 2 kts 46°
2026-04-24 13:07 14.52173 121.00979 82 ft 2 kts 46°
2026-04-24 13:07 14.52162 121.00967 82 ft 2 kts 46°
2026-04-24 13:07 14.52151 121.00956 82 ft 2 kts 46°
2026-04-24 13:07 14.52141 121.00945 82 ft 2 kts 46°
2026-04-24 13:08 14.52130 121.00934 82 ft 2 kts 46°
2026-04-24 13:08 14.52120 121.00922 82 ft 2 kts 46°
2026-04-24 13:08 14.52115 121.00916 82 ft 1 kts 44°
2026-04-24 13:09 14.52106 121.00916 82 ft 0 kts 313°
2026-04-24 13:09 14.52124 121.00899 82 ft 6 kts 314°
2026-04-24 13:09 14.52146 121.00877 82 ft 1 kts 314°
2026-04-24 13:09 14.52148 121.00874 82 ft 0 kts 314°
2026-04-24 13:11 14.52157 121.00865 82 ft 4 kts 315°
2026-04-24 13:11 14.52197 121.00824 82 ft 11 kts 315°
2026-04-24 13:11 14.52267 121.00751 82 ft 16 kts 315°
2026-04-24 13:12 14.52348 121.00668 82 ft 16 kts 315°
2026-04-24 13:12 14.52420 121.00593 82 ft 9 kts 314°
2026-04-24 13:12 14.52469 121.00542 82 ft 9 kts 315°
2026-04-24 13:12 14.52490 121.00507 82 ft 6 kts 273°
2026-04-24 13:13 14.52467 121.00464 82 ft 7 kts 223°
2026-04-24 13:13 14.52457 121.00455 82 ft 0 kts 223°
2026-04-24 13:13 14.52454 121.00452 82 ft 1 kts 223°
2026-04-24 13:13 14.52432 121.00429 82 ft 7 kts 225°
2026-04-24 13:14 14.52372 121.00407 82 ft 11 kts 162°
2026-04-24 13:14 14.52338 121.00432 82 ft 0 kts 135°
2026-04-24 13:14 14.52319 121.00451 82 ft 21 kts 135°
2026-04-24 13:14 14.52025 121.00755 82 ft 95 kts 134°
2026-04-24 13:15 14.51413 121.01385 92 ft 149 kts 134°
2026-04-24 13:15 14.50631 121.02183 493 ft 158 kts 136°
2026-04-24 13:15 14.49846 121.02952 1132 ft 157 kts 133°
2026-04-24 13:15 14.49081 121.03760 1733 ft 157 kts 131°
2026-04-24 13:16 14.48303 121.04595 2132 ft 166 kts 133°
2026-04-24 13:16 14.47448 121.05507 2447 ft 182 kts 134°
2026-04-24 13:16 14.46506 121.06498 2772 ft 199 kts 134°
2026-04-24 13:16 14.45481 121.07568 3069 ft 220 kts 135°
2026-04-24 13:17 14.44141 121.08498 3390 ft 244 kts 163°
2026-04-24 13:17 14.42390 121.08583 3913 ft 261 kts 184°
2026-04-24 13:17 14.40524 121.08360 4525 ft 272 kts 185°
2026-04-24 13:17 14.38640 121.08137 5341 ft 276 kts 185°
2026-04-24 13:18 14.36719 121.07948 6225 ft 279 kts 184°
2026-04-24 13:18 14.34771 121.07790 7056 ft 283 kts 183°
2026-04-24 13:18 14.32766 121.07649 7895 ft 288 kts 183°
2026-04-24 13:18 14.30778 121.07523 8722 ft 291 kts 183°
2026-04-24 13:19 14.28750 121.07403 9541 ft 295 kts 182°
2026-04-24 13:19 14.26672 121.07285 10337 ft 298 kts 182°
2026-04-24 13:19 14.24555 121.07169 10859 ft 312 kts 183°
2026-04-24 13:19 14.22318 121.07048 11236 ft 330 kts 183°
2026-04-24 13:20 14.19984 121.06924 11574 ft 347 kts 183°
2026-04-24 13:20 14.17477 121.06789 12066 ft 358 kts 183°
2026-04-24 13:20 14.14965 121.06654 12748 ft 362 kts 183°
2026-04-24 13:20 14.12437 121.06519 13443 ft 364 kts 183°
2026-04-24 13:21 14.09885 121.06383 14085 ft 368 kts 183°
2026-04-24 13:21 14.07329 121.06246 14671 ft 372 kts 183°
2026-04-24 13:21 14.04711 121.06107 15241 ft 376 kts 183°
2026-04-24 13:21 14.02068 121.05965 15787 ft 380 kts 183°
2026-04-24 13:22 13.99419 121.05823 16316 ft 384 kts 183°
2026-04-24 13:22 13.96735 121.05680 16832 ft 388 kts 183°
2026-04-24 13:22 13.94015 121.05534 17339 ft 391 kts 183°
2026-04-24 13:22 13.91254 121.05387 17856 ft 394 kts 183°
2026-04-24 13:23 13.88466 121.05238 18384 ft 397 kts 183°
2026-04-24 13:23 13.85669 121.05089 18912 ft 400 kts 183°
2026-04-24 13:23 13.82866 121.04939 19416 ft 403 kts 183°
2026-04-24 13:23 13.80038 121.04788 19643 ft 413 kts 183°
2026-04-24 13:24 13.77105 121.04631 20155 ft 415 kts 183°
2026-04-24 13:24 13.74232 121.04477 20872 ft 411 kts 183°
2026-04-24 13:24 13.71382 121.04325 21414 ft 412 kts 183°
2026-04-24 13:24 13.68499 121.04170 21897 ft 415 kts 183°
2026-04-24 13:25 13.65594 121.04013 22373 ft 417 kts 183°
2026-04-24 13:25 13.62682 121.03856 22841 ft 420 kts 184°
2026-04-24 13:25 13.59732 121.03697 23307 ft 422 kts 184°
2026-04-24 13:25 13.56795 121.03539 23748 ft 425 kts 184°
2026-04-24 13:26 13.53799 121.03408 24190 ft 428 kts 180°
2026-04-24 13:26 13.50850 121.03797 24607 ft 432 kts 166°
2026-04-24 13:26 13.48011 121.04894 24913 ft 434 kts 153°
2026-04-24 13:26 13.45455 121.06531 24982 ft 434 kts 146°
2026-04-24 13:27 13.42945 121.08324 24996 ft 434 kts 145°
2026-04-24 13:27 13.40453 121.10123 25008 ft 434 kts 146°
2026-04-24 13:27 13.37982 121.11886 25017 ft 434 kts 146°
2026-04-24 13:27 13.35485 121.13649 25022 ft 434 kts 146°
2026-04-24 13:28 13.32981 121.15411 25025 ft 434 kts 146°
2026-04-24 13:28 13.30468 121.17176 25023 ft 434 kts 146°
2026-04-24 13:28 13.27942 121.18949 25018 ft 434 kts 146°
2026-04-24 13:28 13.25448 121.20699 25011 ft 434 kts 146°
2026-04-24 13:29 13.22917 121.22474 25000 ft 434 kts 146°
2026-04-24 13:29 13.20418 121.24226 24987 ft 433 kts 146°
2026-04-24 13:29 13.17942 121.25962 24980 ft 433 kts 146°
2026-04-24 13:29 13.15424 121.27728 24982 ft 433 kts 146°
2026-04-24 13:30 13.12955 121.29456 24983 ft 434 kts 146°
2026-04-24 13:30 13.10420 121.31233 24986 ft 434 kts 146°
2026-04-24 13:30 13.07933 121.32975 24916 ft 430 kts 146°
2026-04-24 13:30 13.05484 121.34689 24335 ft 430 kts 146°
2026-04-24 13:31 13.02941 121.36466 23305 ft 438 kts 146°
2026-04-24 13:31 13.00390 121.38251 22226 ft 445 kts 146°
2026-04-24 13:31 12.97758 121.40091 21097 ft 453 kts 145°
2026-04-24 13:31 12.95158 121.41911 20004 ft 458 kts 145°
2026-04-24 13:32 12.92497 121.43773 19131 ft 456 kts 145°
2026-04-24 13:32 12.89869 121.45612 18381 ft 451 kts 145°
2026-04-24 13:32 12.87256 121.47432 17632 ft 446 kts 145°
2026-04-24 13:32 12.84673 121.49220 16892 ft 442 kts 145°
2026-04-24 13:33 12.82162 121.50964 16417 ft 431 kts 145°
2026-04-24 13:33 12.79680 121.52696 15839 ft 424 kts 145°
2026-04-24 13:33 12.77218 121.54417 14898 ft 427 kts 145°
2026-04-24 13:33 12.74753 121.56139 14114 ft 424 kts 145°
2026-04-24 13:34 12.72313 121.57841 13428 ft 419 kts 145°
2026-04-24 13:34 12.69944 121.59495 12773 ft 413 kts 145°
2026-04-24 13:34 12.67584 121.61140 12488 ft 398 kts 145°
2026-04-24 13:34 12.65351 121.62697 12251 ft 383 kts 145°
2026-04-24 13:35 12.63185 121.64207 12014 ft 369 kts 145°
2026-04-24 13:35 12.61075 121.65678 11776 ft 357 kts 145°
2026-04-24 13:35 12.59007 121.67132 11539 ft 355 kts 145°
2026-04-24 13:35 12.56964 121.68568 11303 ft 353 kts 145°
2026-04-24 13:36 12.54941 121.69984 11070 ft 352 kts 145°
2026-04-24 13:36 12.52909 121.71403 10833 ft 350 kts 145°
2026-04-24 13:36 12.50884 121.72814 10561 ft 345 kts 145°
2026-04-24 13:36 12.48916 121.74184 10236 ft 337 kts 145°
2026-04-24 13:37 12.46994 121.75520 9916 ft 329 kts 145°
2026-04-24 13:37 12.45146 121.76804 9777 ft 316 kts 144°
2026-04-24 13:37 12.43342 121.78059 9653 ft 303 kts 145°
2026-04-24 13:37 12.41613 121.79261 9530 ft 291 kts 145°
2026-04-24 13:38 12.39928 121.80433 9414 ft 289 kts 144°
2026-04-24 13:38 12.38241 121.81570 9292 ft 289 kts 150°
2026-04-24 13:38 12.36354 121.82261 9170 ft 290 kts 169°
2026-04-24 13:38 12.34338 121.82324 9053 ft 291 kts 186°
2026-04-24 13:39 12.32332 121.81939 8939 ft 292 kts 191°
2026-04-24 13:39 12.30330 121.81489 8821 ft 292 kts 191°
2026-04-24 13:39 12.28323 121.81030 8703 ft 292 kts 191°
2026-04-24 13:39 12.26345 121.80585 8585 ft 292 kts 191°
2026-04-24 13:40 12.24359 121.80145 8467 ft 291 kts 190°
2026-04-24 13:40 12.22359 121.79707 8345 ft 291 kts 190°
2026-04-24 13:40 12.20359 121.79271 8214 ft 290 kts 190°
2026-04-24 13:40 12.18382 121.78841 8069 ft 290 kts 190°
2026-04-24 13:41 12.16400 121.78410 7908 ft 289 kts 190°
2026-04-24 13:41 12.14421 121.77981 7725 ft 289 kts 190°
2026-04-24 13:41 12.12455 121.77554 7472 ft 288 kts 190°
2026-04-24 13:41 12.10491 121.77128 7185 ft 286 kts 190°
2026-04-24 13:42 12.08540 121.76704 6881 ft 285 kts 189°
2026-04-24 13:42 12.06615 121.76286 6576 ft 283 kts 189°
2026-04-24 13:42 12.04676 121.75865 6265 ft 281 kts 189°
2026-04-24 13:42 12.02762 121.75449 5973 ft 279 kts 189°
2026-04-24 13:43 12.00852 121.75035 5671 ft 278 kts 189°
2026-04-24 13:43 11.98959 121.74625 5364 ft 276 kts 189°
2026-04-24 13:43 11.97079 121.74217 5056 ft 275 kts 189°
2026-04-24 13:43 11.95208 121.73813 4777 ft 271 kts 188°
2026-04-24 13:44 11.93368 121.73413 4557 ft 264 kts 188°
2026-04-24 13:44 11.91564 121.73135 4293 ft 257 kts 174°
2026-04-24 13:44 11.89876 121.73507 4084 ft 244 kts 152°
2026-04-24 13:44 11.88361 121.74270 3930 ft 234 kts 148°
2026-04-24 13:45 11.86940 121.75030 3873 ft 221 kts 148°
2026-04-24 13:45 11.85595 121.75745 3832 ft 209 kts 148°
2026-04-24 13:45 11.84416 121.76508 3760 ft 193 kts 125°
2026-04-24 13:45 11.83894 121.77763 3715 ft 197 kts 90°
2026-04-24 13:46 11.84223 121.79111 3436 ft 202 kts 62°
2026-04-24 13:46 11.84923 121.80383 3153 ft 203 kts 63°
2026-04-24 13:46 11.85570 121.81651 2867 ft 199 kts 64°
2026-04-24 13:46 11.86170 121.82848 2702 ft 182 kts 64°
2026-04-24 13:47 11.86737 121.83980 2410 ft 173 kts 64°
2026-04-24 13:47 11.87261 121.85028 2155 ft 158 kts 64°
2026-04-24 13:47 11.87738 121.85981 1924 ft 146 kts 64°
2026-04-24 13:47 11.88187 121.86880 1758 ft 140 kts 63°
2026-04-24 13:48 11.88629 121.87766 1560 ft 139 kts 63°
2026-04-24 13:48 11.89075 121.88655 1371 ft 139 kts 64°
2026-04-24 13:48 11.89515 121.89532 1211 ft 139 kts 64°
2026-04-24 13:48 11.89954 121.90408 1013 ft 137 kts 64°
2026-04-24 13:49 11.90393 121.91280 822 ft 136 kts 64°
2026-04-24 13:49 11.90818 121.92127 643 ft 136 kts 64°
2026-04-24 13:49 11.91250 121.93011 467 ft 136 kts 64°
2026-04-24 13:49 11.91682 121.93876 264 ft 134 kts 63°
2026-04-24 13:50 11.92103 121.94696 90 ft 128 kts 63°
2026-04-24 13:50 11.92496 121.95480 27 ft 113 kts 63°
2026-04-24 13:50 11.92748 121.95981 51 ft 36 kts 63°
2026-04-24 13:50 11.92797 121.96107 56 ft 9 kts 112°
2026-04-24 13:51 11.92737 121.96146 56 ft 10 kts 153°
2026-04-24 13:51 11.92675 121.96178 56 ft 8 kts 152°
2026-04-24 13:51 11.92641 121.96210 56 ft 6 kts 100°
2026-04-24 13:51 11.92655 121.96252 57 ft 5 kts 63°
2026-04-24 13:52 11.92673 121.96288 58 ft 5 kts 63°
2026-04-24 13:52 11.92689 121.96320 59 ft 4 kts 63°
2026-04-24 13:52 11.92704 121.96348 59 ft 4 kts 63°
2026-04-24 13:52 11.92712 121.96368 60 ft 1 kts 81°
2026-04-24 13:53 11.92706 121.96377 60 ft 0 kts 144°
2026-04-24 13:53 11.92699 121.96381 60 ft 5 kts 149°
2026-04-24 13:53 11.92674 121.96395 60 ft 2 kts 152°
2026-04-24 13:53 11.92666 121.96400 60 ft 1 kts 152°
2026-04-24 13:54 11.92664 121.96401 60 ft 0 kts 152°